Weather History for Philadelphia Wings Airport, PA

Change the Weather History Date:

Sunday, February 17, 2013

  Actual Average (KPNE) Record (KPNE)
Temperature  
Mean Temperature 28 °F -  
Max Temperature 32 °F 42 °F 66 °F (2011)
Min Temperature 23 °F 26 °F 15 °F (2003)
Degree Days  
Heating Degree Days 38    
Moisture  
Dew Point 9 °F    
Average Humidity 44    
Maximum Humidity 74    
Minimum Humidity 34    
Precipitation  
Precipitation 0.00 in - - ()
Sea Level Pressure  
Sea Level Pressure 29.84 in    
Wind  
Wind Speed 10 mph (NW)    
Max Wind Speed 18 mph    
Max Gust Speed 33 mph    
Visibility 10 miles    
Events      
Averages and records for this station are not official NWS values.
T = Trace of Precipitation, MM = Missing Value Source: NWS Daily Summary

Daily Weather History Graph

Daily Weather History Graph

Search for Another Location

Airport:

Trip Planner

Search our weather history database for the weather conditions in past years. The results will help you decide how hot, cold, wet, or windy it might be!

Date:

Astronomy

Feb. 17, 2013 Rise Set
Actual Time 6:51 AM EST 5:39 PM EST
Civil Twilight 6:23 AM EST 6:07 PM EST
Nautical Twilight 5:51 AM EST 6:38 PM EST
Astronomical Twilight 5:20 AM EST 7:10 PM EST
Moon 10:42 AM EST (2/17) 12:33 AM EST (2/17)
Length of Visible Light 11h 43m
Length of Day
10h 48m
Waxing Crescent, 49% of the Moon is Illuminated
Feb 17
Waxing Crescent
Feb 17
First Quarter
Feb 25
Full
Mar 4
Last Quarter
Mar 11
New

Hourly Weather History & Observations

Time (EST) Temp. Windchill Dew Point Humidity Pressure Visibility Wind Dir Wind Speed Gust Speed Precip Events Conditions
12:15 AM 32.0 °F 25.6 °F 12.2 °F 44% 29.76 in 10.0 mi NNW 6.9 mph 18.4 mph N/A   Clear
12:35 AM 32.0 °F 23.0 °F 10.4 °F 41% 29.75 in 10.0 mi NNW 11.5 mph 19.6 mph N/A   Clear
12:55 AM 32.0 °F 25.6 °F 10.4 °F 41% 29.75 in 10.0 mi NNW 6.9 mph 21.9 mph N/A   Clear
1:15 AM 30.2 °F 20.8 °F 12.2 °F 47% 29.75 in 10.0 mi NNW 11.5 mph 21.9 mph N/A   Clear
1:35 AM 30.2 °F 22.6 °F 12.2 °F 47% 29.75 in 10.0 mi North 8.1 mph 16.1 mph N/A   Clear
1:55 AM 30.2 °F 22.6 °F 12.2 °F 47% 29.75 in 10.0 mi NW 8.1 mph - N/A   Clear
2:15 AM 30.2 °F 22.6 °F 10.4 °F 44% 29.75 in 10.0 mi North 8.1 mph - N/A   Clear
2:35 AM 30.2 °F 25.4 °F 10.4 °F 44% 29.75 in 10.0 mi NNW 4.6 mph - N/A   Clear
2:55 AM 30.2 °F 23.4 °F 10.4 °F 44% 29.74 in 10.0 mi NNW 6.9 mph - N/A   Clear
3:15 AM 30.2 °F 25.4 °F 10.4 °F 44% 29.74 in 10.0 mi NW 4.6 mph - N/A   Clear
3:35 AM 30.2 °F 22.6 °F 10.4 °F 44% 29.74 in 10.0 mi NNW 8.1 mph 16.1 mph N/A   Clear
3:55 AM 30.2 °F 24.3 °F 10.4 °F 44% 29.75 in 10.0 mi NW 5.8 mph - N/A   Clear
4:15 AM 30.2 °F 21.3 °F 8.6 °F 40% 29.74 in 10.0 mi NNW 10.4 mph 19.6 mph N/A   Clear
4:35 AM 30.2 °F 21.9 °F 10.4 °F 44% 29.75 in 10.0 mi NNW 9.2 mph 17.3 mph N/A   Clear
4:55 AM 30.2 °F 23.4 °F 8.6 °F 40% 29.75 in 10.0 mi NW 6.9 mph 20.7 mph N/A   Clear
5:15 AM 28.4 °F 18.5 °F 8.6 °F 43% 29.75 in 10.0 mi NW 11.5 mph 19.6 mph N/A   Clear
5:35 AM 28.4 °F 22.2 °F 8.6 °F 43% 29.75 in 10.0 mi NW 5.8 mph 16.1 mph N/A   Clear
5:55 AM 28.4 °F 20.4 °F 10.4 °F 47% 29.75 in 10.0 mi NW 8.1 mph - N/A   Clear
6:15 AM 28.4 °F 19.7 °F 10.4 °F 47% 29.76 in 10.0 mi NW 9.2 mph 17.3 mph N/A   Clear
6:35 AM 28.4 °F 19.7 °F 10.4 °F 47% 29.76 in 10.0 mi NW 9.2 mph - N/A   Clear
6:55 AM 28.4 °F 19.7 °F 10.4 °F 47% 29.76 in 10.0 mi NW 9.2 mph - N/A   Clear
7:15 AM 26.6 °F 19.1 °F 10.4 °F 51% 29.77 in 10.0 mi NW 6.9 mph - N/A   Clear
7:35 AM 28.4 °F 19.1 °F 10.4 °F 47% 29.77 in 10.0 mi NW 10.4 mph 19.6 mph N/A   Clear
7:55 AM 28.4 °F 20.4 °F 10.4 °F 47% 29.78 in 10.0 mi WNW 8.1 mph - N/A   Clear
8:15 AM 28.4 °F 21.2 °F 10.4 °F 47% 29.78 in 10.0 mi NW 6.9 mph 20.7 mph N/A   Clear
8:35 AM 28.4 °F 19.1 °F 10.4 °F 47% 29.78 in 10.0 mi NW 10.4 mph 19.6 mph N/A   Clear
8:55 AM 30.2 °F 21.9 °F 10.4 °F 44% 29.78 in 10.0 mi WNW 9.2 mph 17.3 mph N/A   Clear
9:15 AM 30.2 °F 20.2 °F 10.4 °F 44% 29.78 in 10.0 mi NW 12.7 mph 24.2 mph N/A   Clear
9:35 AM 30.2 °F 21.9 °F 12.2 °F 47% 29.78 in 10.0 mi WNW 9.2 mph 24.2 mph N/A   Clear
9:55 AM 32.0 °F 21.6 °F 12.2 °F 44% 29.79 in 10.0 mi WNW 15.0 mph 23.0 mph N/A   Clear
10:15 AM 32.0 °F 22.1 °F 12.2 °F 44% 29.80 in 10.0 mi NW 13.8 mph 21.9 mph N/A   Scattered Clouds
10:35 AM 32.0 °F 22.1 °F 10.4 °F 41% 29.80 in 10.0 mi NNW 13.8 mph 26.5 mph N/A   Scattered Clouds
10:55 AM 30.2 °F 20.2 °F 14.0 °F 51% 29.80 in 10.0 mi WNW 12.7 mph 20.7 mph N/A   Mostly Cloudy
11:15 AM 30.2 °F 20.8 °F 14.0 °F 51% 29.81 in 10.0 mi NW 11.5 mph 21.9 mph N/A   Mostly Cloudy
11:35 AM 30.2 °F 19.3 °F 10.4 °F 44% 29.81 in 10.0 mi NW 15.0 mph 25.3 mph N/A   Scattered Clouds
12:15 PM 32.0 °F 23.6 °F 10.4 °F 41% 29.80 in 10.0 mi NNW 10.4 mph 23.0 mph N/A   Mostly Cloudy
12:35 PM 32.0 °F 22.1 °F 12.2 °F 44% 29.80 in 10.0 mi NW 13.8 mph 26.5 mph N/A   Scattered Clouds
12:55 PM 32.0 °F 22.1 °F 12.2 °F 44% 29.80 in 10.0 mi WNW 13.8 mph 26.5 mph N/A   Clear
1:15 PM 32.0 °F 21.2 °F 10.4 °F 41% 29.81 in 10.0 mi WNW 16.1 mph 28.8 mph N/A   Scattered Clouds
1:55 PM 32.0 °F 24.2 °F 10.4 °F 41% 29.81 in 10.0 mi NW 9.2 mph 28.8 mph N/A   Scattered Clouds
2:15 PM 32.0 °F 20.5 °F 10.4 °F 41% 29.81 in 10.0 mi WNW 18.4 mph 27.6 mph N/A   Scattered Clouds
2:35 PM 30.2 °F 19.3 °F 8.6 °F 40% 29.82 in 10.0 mi NW 15.0 mph 31.1 mph N/A   Clear
2:55 PM 32.0 °F 21.2 °F 10.4 °F 41% 29.82 in 10.0 mi WNW 16.1 mph 27.6 mph N/A   Scattered Clouds
3:15 PM 30.2 °F 18.9 °F 8.6 °F 40% 29.82 in 10.0 mi WNW 16.1 mph 25.3 mph N/A   Clear
3:35 PM 32.0 °F 21.2 °F 10.4 °F 41% 29.83 in 10.0 mi West 16.1 mph 28.8 mph N/A   Clear
3:55 PM 30.2 °F 20.2 °F 12.2 °F 47% 29.83 in 10.0 mi WNW 12.7 mph 24.2 mph N/A   Scattered Clouds
4:15 PM 28.4 °F 19.7 °F 21.2 °F 74% 29.85 in 1.0 mi WNW 9.2 mph 28.8 mph N/A   Overcast
4:35 PM 28.4 °F 16.6 °F 17.6 °F 64% 29.86 in 10.0 mi NW 16.1 mph 21.9 mph N/A   Scattered Clouds
4:55 PM 28.4 °F 18.5 °F 14.0 °F 55% 29.86 in 10.0 mi WNW 11.5 mph 23.0 mph N/A   Clear
5:15 PM 28.4 °F 18.5 °F 12.2 °F 51% 29.87 in 10.0 mi NW 11.5 mph 17.3 mph N/A   Clear
5:35 PM 30.2 °F 20.8 °F 10.4 °F 44% 29.88 in 10.0 mi WNW 11.5 mph 19.6 mph N/A   Scattered Clouds
5:55 PM 30.2 °F 18.1 °F 8.6 °F 40% 29.89 in 10.0 mi WNW 18.4 mph 33.4 mph N/A   Scattered Clouds
6:15 PM 30.2 °F 20.8 °F 6.8 °F 37% 29.91 in 10.0 mi WNW 11.5 mph 23.0 mph N/A   Scattered Clouds
6:35 PM 28.4 °F 16.6 °F 5.0 °F 37% 29.92 in 10.0 mi WNW 16.1 mph 27.6 mph N/A   Scattered Clouds
6:55 PM 28.4 °F 19.1 °F 5.0 °F 37% 29.93 in 10.0 mi WNW 10.4 mph 21.9 mph N/A   Mostly Cloudy
7:15 PM 28.4 °F 17.5 °F 5.0 °F 37% 29.94 in 10.0 mi WNW 13.8 mph 19.6 mph N/A   Scattered Clouds
7:35 PM 28.4 °F 18.0 °F 5.0 °F 37% 29.96 in 10.0 mi NW 12.7 mph 17.3 mph N/A   Scattered Clouds
7:55 PM 28.4 °F 18.0 °F 5.0 °F 37% 29.96 in 10.0 mi WNW 12.7 mph 24.2 mph N/A   Mostly Cloudy
8:15 PM 26.6 °F 14.3 °F 3.2 °F 37% 29.97 in 10.0 mi NW 16.1 mph 27.6 mph N/A   Scattered Clouds
8:35 PM 26.6 °F 15.2 °F 3.2 °F 37% 29.99 in 10.0 mi WNW 13.8 mph 26.5 mph N/A   Clear
8:55 PM 26.6 °F 15.2 °F 1.4 °F 34% 30.00 in 10.0 mi NW 13.8 mph 26.5 mph N/A   Clear
9:15 PM 26.6 °F 16.8 °F 3.2 °F 37% 30.01 in 10.0 mi NW 10.4 mph 25.3 mph N/A   Clear
9:35 PM 24.8 °F 14.0 °F 3.2 °F 40% 30.02 in 10.0 mi WNW 11.5 mph 21.9 mph N/A   Clear
9:55 PM 24.8 °F 12.9 °F 3.2 °F 40% 30.03 in 10.0 mi WNW 13.8 mph 24.2 mph N/A   Clear
10:15 PM 24.8 °F 12.9 °F 3.2 °F 40% 30.04 in 10.0 mi NW 13.8 mph 25.3 mph N/A   Clear
10:35 PM 23.0 °F 11.7 °F 3.2 °F 43% 30.05 in 10.0 mi WNW 11.5 mph 27.6 mph N/A   Clear
10:55 PM 23.0 °F 10.6 °F 3.2 °F 43% 30.06 in 10.0 mi NW 13.8 mph 27.6 mph N/A   Clear
11:15 PM 23.0 °F 8.7 °F 3.2 °F 43% 30.06 in 10.0 mi NW 18.4 mph 27.6 mph N/A   Scattered Clouds
11:35 PM 23.0 °F 11.7 °F 3.2 °F 43% 30.07 in 10.0 mi WNW 11.5 mph 24.2 mph N/A   Clear
11:55 PM 23.0 °F 10.6 °F 3.2 °F 43% 30.07 in 10.0 mi WNW 13.8 mph 29.9 mph N/A   Clear